Location: Kerb�bon
(47.7970°N, 3.3487°W)
Time: 12:50:27
(UTC+00:00)

Cosmos 1833 Rocket - Pass Details

Date: 12 May 2021
Orbit: 831 x 841 km, 71.0° (Epoch: 18 June)

Event Time Altitude Azimuth Distance (km) Brightness Sun altitude
Rises 22:22:09 0° 322° (NW) 3,406 7.4 -19.6°
Reaches altitude 10° 22:25:01 10° 310° (NW) 2,467 6.1 -19.8°
Maximum altitude 22:29:26 24° 258° (WSW) 1,677 4.4 -20.1°
Enters shadow 22:32:37 15° 216° (SW) 2,120 4.5 -20.3°
